• In Uzbekistan
  • List of Countries
  • For 7 days
  • Water Temperature
  • Satellite Maps
  • Weather Map
  • Weather Widgets
  • user-avatar
    Login

    Hourly Weather Banfora

    Today, 26 April, Friday

    Time Temperature Precipitation Wind Pressure Humidity
    00:00 +34°C° 0 mm 2 mps 733 mmHg 50%
    01:00 +33°C° 0 mm 1 mps 732 mmHg 52%
    02:00 +32°C° 0 mm 1 mps 732 mmHg 55%
    03:00 +30°C° 0 mm 0 mps 732 mmHg 57%
    04:00 +31°C° 0 mm 1 mps 732 mmHg 59%
    05:00 +31°C° 0 mm 1 mps 732 mmHg 61%
    06:00 +30°C° 0 mm 2 mps 732 mmHg 62%
    07:00 +32°C° 0 mm 2 mps 732 mmHg 59%
    08:00 +34°C° 0 mm 3 mps 733 mmHg 56%
    09:00 +35°C° 0 mm 3 mps 733 mmHg 53%
    10:00 +37°C° 0 mm 2 mps 733 mmHg 47%
    11:00 +39°C° 0 mm 2 mps 733 mmHg 41%
    12:00 +41°C° 0 mm 1 mps 733 mmHg 35%
    13:00 +41°C° 0 mm 1 mps 732 mmHg 34%
    14:00 +42°C° 0 mm 1 mps 731 mmHg 32%
    15:00 +42°C° 0 mm 1 mps 731 mmHg 30%
    16:00 +41°C° 0 mm 1 mps 731 mmHg 32%
    17:00 +40°C° 0 mm 1 mps 731 mmHg 34%
    18:00 +39°C° 0 mm 1 mps 731 mmHg 36%
    19:00 +39°C° 0 mm 1 mps 731 mmHg 38%
    20:00 +37°C° 0 mm 1 mps 731 mmHg 40%
    21:00 +36°C° 0 mm 1 mps 731 mmHg 42%
    22:00 +36°C° 0 mm 1 mps 731 mmHg 44%
    23:00 +35°C° 0 mm 1 mps 731 mmHg 46%

    Tomorrow, 27 April, Saturday

    Time Temperature Precipitation Wind Pressure Humidity
    00:00 +35°C° 0 mm 2 mps 731 mmHg 48%
    01:00 +34°C° 0 mm 2 mps 731 mmHg 53%
    02:00 +34°C° 0 mm 2 mps 731 mmHg 57%
    03:00 +32°C° 0 mm 2 mps 730 mmHg 61%
    04:00 +31°C° 0 mm 2 mps 731 mmHg 62%
    05:00 +31°C° 0 mm 2 mps 731 mmHg 64%
    06:00 +31°C° 0 mm 3 mps 731 mmHg 65%
    07:00 +33°C° 0 mm 3 mps 731 mmHg 62%
    08:00 +34°C° 0 mm 3 mps 732 mmHg 59%
    09:00 +34°C° 0 mm 4 mps 732 mmHg 56%
    10:00 +36°C° 0 mm 3 mps 732 mmHg 50%
    11:00 +38°C° 0 mm 3 mps 732 mmHg 44%
    12:00 +40°C° 0 mm 2 mps 732 mmHg 39%
    13:00 +41°C° 0 mm 2 mps 731 mmHg 35%
    14:00 +42°C° 0 mm 2 mps 730 mmHg 31%
    15:00 +43°C° 0 mm 1 mps 730 mmHg 27%
    16:00 +42°C° 0 mm 1 mps 729 mmHg 28%
    17:00 +42°C° 0 mm 1 mps 729 mmHg 28%
    18:00 +41°C° 0 mm 2 mps 729 mmHg 29%
    19:00 +40°C° 0 mm 2 mps 730 mmHg 34%
    20:00 +38°C° 0 mm 3 mps 730 mmHg 40%
    21:00 +37°C° 0 mm 4 mps 731 mmHg 45%
    22:00 +36°C° 0 mm 4 mps 731 mmHg 49%
    23:00 +35°C° 0 mm 4 mps 731 mmHg 52%

    Day after tomorrow, 28 April, Sunday

    Time Temperature Precipitation Wind Pressure Humidity
    00:00 +35°C° 0 mm 3 mps 731 mmHg 55%
    01:00 +34°C° 0 mm 3 mps 731 mmHg 57%
    02:00 +34°C° 0 mm 3 mps 731 mmHg 59%
    03:00 +33°C° 0 mm 3 mps 730 mmHg 60%
    04:00 +33°C° 0 mm 3 mps 730 mmHg 62%
    05:00 +31°C° 0 mm 3 mps 731 mmHg 64%
    06:00 +31°C° 0 mm 3 mps 731 mmHg 65%
    07:00 +33°C° 0 mm 3 mps 731 mmHg 62%
    08:00 +34°C° 0 mm 4 mps 732 mmHg 58%
    09:00 +35°C° 0 mm 4 mps 732 mmHg 54%
    10:00 +37°C° 0 mm 3 mps 732 mmHg 48%
    11:00 +39°C° 0 mm 3 mps 732 mmHg 42%
    12:00 +42°C° 0 mm 3 mps 732 mmHg 36%
    13:00 +41°C° 0 mm 2 mps 731 mmHg 33%
    14:00 +42°C° 0 mm 2 mps 730 mmHg 30%
    15:00 +43°C° 0 mm 2 mps 730 mmHg 27%
    16:00 +42°C° 0 mm 1 mps 730 mmHg 28%
    17:00 +42°C° 0 mm 1 mps 729 mmHg 29%
    18:00 +41°C° 0 mm 1 mps 729 mmHg 30%
    19:00 +40°C° 0 mm 1 mps 730 mmHg 32%
    20:00 +39°C° 0 mm 1 mps 730 mmHg 35%
    21:00 +37°C° 0 mm 1 mps 731 mmHg 38%
    22:00 +37°C° 0 mm 2 mps 731 mmHg 41%
    23:00 +37°C° 0 mm 2 mps 731 mmHg 45%

    29 April, Monday

    Time Temperature Precipitation Wind Pressure Humidity
    00:00 +36°C° 0 mm 3 mps 731 mmHg 48%
    01:00 +36°C° 0 mm 3 mps 731 mmHg 51%
    02:00 +35°C° 0 mm 3 mps 730 mmHg 54%
    03:00 +34°C° 0 mm 2 mps 730 mmHg 56%
    04:00 +34°C° 0.1 mm 3 mps 730 mmHg 59%
    05:00 +33°C° 0.1 mm 3 mps 731 mmHg 61%
    06:00 +33°C° 0.1 mm 3 mps 731 mmHg 63%
    07:00 +33°C° 0 mm 3 mps 731 mmHg 62%
    08:00 +34°C° 0 mm 3 mps 732 mmHg 61%
    09:00 +34°C° 0 mm 4 mps 733 mmHg 60%
    10:00 +36°C° 0 mm 4 mps 733 mmHg 55%
    11:00 +38°C° 0 mm 4 mps 732 mmHg 50%
    12:00 +40°C° 0 mm 4 mps 732 mmHg 44%
    13:00 +40°C° 0 mm 3 mps 731 mmHg 40%
    14:00 +41°C° 0 mm 2 mps 731 mmHg 37%
    15:00 +42°C° 0 mm 2 mps 730 mmHg 33%
    16:00 +41°C° 0 mm 2 mps 730 mmHg 34%
    17:00 +41°C° 0 mm 2 mps 730 mmHg 34%
    18:00 +40°C° 0 mm 2 mps 730 mmHg 35%
    19:00 +39°C° 0 mm 2 mps 730 mmHg 39%
    20:00 +38°C° 0 mm 2 mps 731 mmHg 42%
    21:00 +37°C° 0 mm 2 mps 731 mmHg 45%
    22:00 +37°C° 0.1 mm 2 mps 731 mmHg 48%
    23:00 +36°C° 0.1 mm 3 mps 731 mmHg 50%

    30 April, Tuesday

    Time Temperature Precipitation Wind Pressure Humidity
    00:00 +36°C° 0.1 mm 3 mps 731 mmHg 52%
    01:00 +35°C° 0.2 mm 3 mps 731 mmHg 55%
    02:00 +34°C° 0.2 mm 3 mps 731 mmHg 57%
    03:00 +34°C° 0.2 mm 3 mps 730 mmHg 60%
    04:00 +33°C° 0 mm 3 mps 731 mmHg 62%
    05:00 +33°C° 0 mm 4 mps 731 mmHg 65%
    06:00 +32°C° 0 mm 4 mps 732 mmHg 68%
    07:00 +33°C° 0 mm 4 mps 732 mmHg 66%
    08:00 +33°C° 0 mm 4 mps 733 mmHg 64%
    09:00 +34°C° 0 mm 4 mps 734 mmHg 62%
    10:00 +35°C° 0 mm 3 mps 733 mmHg 57%
    11:00 +37°C° 0 mm 3 mps 733 mmHg 51%
    12:00 +39°C° 0 mm 3 mps 733 mmHg 46%
    13:00 +39°C° 0 mm 3 mps 732 mmHg 44%
    14:00 +39°C° 0 mm 3 mps 731 mmHg 43%
    15:00 +39°C° 0 mm 3 mps 730 mmHg 41%
    16:00 +39°C° 0 mm 3 mps 730 mmHg 42%
    17:00 +39°C° 0 mm 3 mps 731 mmHg 42%
    18:00 +38°C° 0 mm 3 mps 731 mmHg 42%
    19:00 +36°C° 3 mm 3 mps 731 mmHg 51%
    20:00 +35°C° 3 mm 3 mps 731 mmHg 60%
    21:00 +33°C° 3 mm 3 mps 732 mmHg 69%
    22:00 +32°C° 0.1 mm 2 mps 732 mmHg 69%
    23:00 +32°C° 0.1 mm 2 mps 732 mmHg 68%

    1 May, Wednesday

    Time Temperature Precipitation Wind Pressure Humidity
    00:00 +32°C° 0.1 mm 2 mps 732 mmHg 67%
    01:00 +32°C° 0 mm 2 mps 731 mmHg 68%
    02:00 +31°C° 0 mm 2 mps 731 mmHg 68%
    03:00 +31°C° 0 mm 2 mps 731 mmHg 69%
    04:00 +31°C° 0 mm 2 mps 731 mmHg 70%
    05:00 +30°C° 0 mm 3 mps 731 mmHg 72%
    06:00 +30°C° 0 mm 3 mps 732 mmHg 73%
    07:00 +31°C° 0 mm 3 mps 732 mmHg 69%
    08:00 +33°C° 0 mm 3 mps 733 mmHg 65%
    09:00 +34°C° 0 mm 4 mps 733 mmHg 61%
    10:00 +35°C° 0 mm 3 mps 733 mmHg 55%
    11:00 +37°C° 0 mm 3 mps 733 mmHg 48%
    12:00 +39°C° 0 mm 3 mps 732 mmHg 41%
    13:00 +40°C° 0 mm 2 mps 732 mmHg 37%
    14:00 +41°C° 0 mm 2 mps 731 mmHg 33%
    15:00 +42°C° 0 mm 1 mps 730 mmHg 29%
    16:00 +41°C° 0 mm 2 mps 730 mmHg 31%
    17:00 +40°C° 0 mm 2 mps 730 mmHg 32%
    18:00 +40°C° 0 mm 2 mps 730 mmHg 33%
    19:00 +38°C° 0 mm 2 mps 731 mmHg 38%
    20:00 +37°C° 0 mm 3 mps 731 mmHg 42%
    21:00 +36°C° 0 mm 3 mps 731 mmHg 47%
    22:00 +36°C° 0 mm 3 mps 731 mmHg 49%
    23:00 +35°C° 0 mm 3 mps 731 mmHg 51%
    Show more